FW3092 Weather Reports


time (UTC)temp
C
wind
direction
speed
KPH
gust
KPH
rain 1hr
cm
rain 24hr
cm
rain mn
cm
humidity
%
barometer
mb
20260504081526 6 222 11.3 19.3 0.00 0.00 0.00 62 953.2
20260504050002 8 221 11.3 22.5 0.00 0.00 0.00 57 953.4
20260504044501 8 209 9.7 17.7 0.00 0.00 0.00 57 953.3
20260504043101 8 205 6.4 12.9 0.00 0.00 0.00 57 953.3
20260504041554 9 213 6.4 12.9 0.00 0.00 0.00 56 953.6
20260504040052 9 240 6.4 14.5 0.00 0.00 0.00 56 953.4
20260504034554 10 229 6.4 11.3 0.00 0.00 0.00 55 953.4
20260504033055 10 255 11.3 22.5 0.00 0.00 0.00 54 953.4
20260504031550 10 300 8.0 16.1 0.00 0.00 0.00 54 953.6
20260504030050 10 263 12.9 22.5 0.00 0.00 0.00 55 953.7
20260504024548 9 275 8.0 17.7 0.00 0.00 0.00 56 953.7
20260504023047 9 297 6.4 16.1 0.00 0.00 0.00 56 953.8
20260504021545 10 272 8.0 22.5 0.00 0.00 0.00 56 954.0
20260504020045 10 286 11.3 29.0 0.00 0.00 0.00 55 954.0
20260504014547 9 340 12.9 29.0 0.00 0.00 0.00 56 953.7
20260504013049 9 51 4.8 20.9 0.00 0.00 0.00 57 953.7
20260504011548 9 257 11.3 19.3 0.00 0.00 0.00 57 953.8
20260504010053 9 350 3.2 14.5 0.00 0.00 0.00 57 953.6
20260504004542 10 286 4.8 16.1 0.00 0.00 0.00 55 953.7
20260504003043 10 269 6.4 27.4 0.00 0.00 0.00 54 953.5
20260504001600 10 287 6.4 14.5 0.00 0.00 0.00 53 953.2
20260504000043 10 243 4.8 8.0 0.00 0.00 0.00 52 953.0
20260503234540 10 243 3.2 8.0 0.00 0.00 0.00 51 952.9
20260503233040 11 240 6.4 16.1 0.00 0.00 0.00 49 952.7
20260503231542 11 260 11.3 17.7 0.00 0.00 0.00 48 952.8
20260503230039 11 281 8.0 17.7 0.00 0.00 0.00 49 952.9
20260503224538 11 283 4.8 20.9 0.00 0.00 0.00 49 952.8
20260503223041 11 303 4.8 24.1 0.00 0.00 0.00 48 952.7
20260503221542 11 283 6.4 16.1 0.00 0.00 0.00 47 952.9
20260503220047 11 263 4.8 27.4 0.00 0.00 0.00 47 953.1
20260503214534 11 263 12.9 20.9 0.00 0.00 0.00 48 952.9
20260503213038 11 309 9.7 20.9 0.00 0.00 0.00 50 952.9
20260503211533 10 251 11.3 24.1 0.00 0.00 0.00 53 953.2
20260503210031 10 332 11.3 33.8 0.00 0.00 0.00 51 953.0
20260503204530 10 276 6.4 20.9 0.00 0.00 0.00 49 953.0
20260503203034 11 347 14.5 30.6 0.00 0.00 0.00 47 952.8
20260503201531 11 271 11.3 19.3 0.00 0.00 0.00 46 952.9
20260503200031 10 280 11.3 25.7 0.00 0.00 0.00 45 953.0
20260503194530 10 342 8.0 30.6 0.00 0.00 0.00 46 953.1
20260503193024 10 355 9.7 17.7 0.00 0.00 0.00 44 953.4
20260503191526 10 287 11.3 22.5 0.00 0.00 0.00 43 953.4
20260503190024 11 247 11.3 22.5 0.00 0.00 0.00 43 953.5
20260503184526 11 281 9.7 22.5 0.00 0.00 0.00 41 953.6
20260503183027 11 283 9.7 22.5 0.00 0.00 0.00 42 953.9
20260503181527 10 321 11.3 29.0 0.00 0.00 0.00 41 953.9
20260503180016 11 292 11.3 20.9 0.00 0.00 0.00 44 953.9
20260503174513 10 265 6.4 20.9 0.00 0.00 0.00 42 954.3
20260503173036 9 287 6.4 24.1 0.00 0.00 0.00 44 954.4
20260503171512 10 257 9.7 29.0 0.00 0.00 0.00 42 954.6